Athens, TX

9:38 PM CST on December 14, 2017 (GMT -0600)
Athens

Weather History for KF44 - November, 2012

Change the Weather History Date:

Saturday, November 24, 2012

  Actual Average (KTYR) Record (KTYR)
Temperature  
Mean Temperature 46 °F -  
Max Temperature 58 °F 62 °F 85 °F (1910)
Min Temperature 34 °F 43 °F 22 °F (1970)
Degree Days  
Heating Degree Days 19    
Moisture  
Dew Point 24 °F    
Average Humidity 49    
Maximum Humidity 79    
Minimum Humidity 22    
Precipitation  
Precipitation 0.00 in - - ()
Sea Level Pressure  
Sea Level Pressure 30.29 in    
Wind  
Wind Speed 2 mph ()    
Max Wind Speed 7 mph    
Max Gust Speed -    
Visibility 10.0 miles    
Events      
Averages and records for this station are not official NWS values.
T = Trace of Precipitation, MM = Missing Value Source: Averaged Metar Reports

Daily Weather History Graph

Daily Weather History Graph

Search for Another Location

Airport or City:

Trip Planner

Search our weather history database for the weather conditions in past years. The results will help you decide how hot, cold, wet, or windy it might be!

Date:

Astronomy

Nov. 24, 2012 Rise Set
Actual Time 7:00 AM CST 5:19 PM CST
Civil Twilight 6:34 AM CST 5:45 PM CST
Nautical Twilight 6:04 AM CST 6:15 PM CST
Astronomical Twilight 5:34 AM CST 6:45 PM CST
Moon 2:56 PM CST (11/24) 3:28 AM CST (11/24)
Length of Visible Light 11h 11m
Length of Day
10h 18m
Waxing Gibbous, 87% of the Moon is Illuminated
Nov 24
Waxing Gibbous
Nov 28
Full
Dec 6
Last Quarter
Dec 13
New
Dec 19
First Quarter

Hourly Weather History & Observations

Time (CST) Temp. Windchill Dew Point Humidity Pressure Visibility Wind Dir Wind Speed Gust Speed Precip Events Conditions
12:15 AM 44.1 °F 41.5 °F 25.3 °F 48% 30.41 in 10.0 mi North 4.6 mph - N/A   Clear
12:35 AM 43.5 °F 40.9 °F 25.3 °F 49% 30.40 in 10.0 mi North 4.6 mph - N/A   Clear
12:55 AM 43.3 °F 40.7 °F 25.2 °F 49% 30.40 in 10.0 mi North 4.6 mph - N/A   Clear
1:15 AM 42.6 °F 39.0 °F 25.2 °F 50% 30.40 in 10.0 mi North 5.8 mph - N/A   Clear
1:35 AM 42.6 °F 39.9 °F 24.6 °F 49% 30.40 in 10.0 mi North 4.6 mph - N/A   Clear
1:55 AM 42.1 °F 39.2 °F 24.6 °F 50% 30.39 in 10.0 mi North 4.6 mph - N/A   Clear
2:15 AM 41.0 °F - 24.8 °F 53% 30.39 in 10.0 mi Calm Calm - N/A   Clear
2:35 AM 40.6 °F - 24.8 °F 53% 30.39 in 10.0 mi Calm Calm - N/A   Clear
2:55 AM 40.5 °F - 24.8 °F 54% 30.39 in 10.0 mi Calm Calm - N/A   Clear
3:15 AM 40.3 °F 37.1 °F 24.4 °F 53% 30.40 in 10.0 mi North 4.6 mph - N/A   Clear
3:35 AM 39.2 °F - 24.4 °F 56% 30.39 in 10.0 mi Calm Calm - N/A   Clear
3:55 AM 38.3 °F - 24.6 °F 58% 30.39 in 10.0 mi Calm Calm - N/A   Clear
4:15 AM 37.8 °F - 24.6 °F 59% 30.39 in 10.0 mi Calm Calm - N/A   Clear
4:35 AM 37.6 °F - 24.6 °F 60% 30.38 in 10.0 mi Calm Calm - N/A   Clear
4:55 AM 37.8 °F - 24.1 °F 58% 30.38 in 10.0 mi Calm Calm - N/A   Clear
5:15 AM 37.0 °F 34.5 °F 24.4 °F 60% 30.39 in 10.0 mi NNW 3.5 mph - N/A   Clear
5:35 AM 36.9 °F 34.3 °F 24.3 °F 60% 30.39 in 10.0 mi North 3.5 mph - N/A   Clear
5:55 AM 36.0 °F - 24.3 °F 63% 30.39 in 10.0 mi Calm Calm - N/A   Clear
6:15 AM 35.8 °F 33.0 °F 24.3 °F 63% 30.39 in 10.0 mi North 3.5 mph - N/A   Clear
6:35 AM 35.6 °F 32.8 °F 23.9 °F 62% 30.39 in 10.0 mi North 3.5 mph - N/A   Clear
6:55 AM 35.1 °F - 24.3 °F 65% 30.39 in 10.0 mi Calm Calm - N/A   Clear
7:15 AM 34.5 °F 31.6 °F 24.1 °F 66% 30.40 in 10.0 mi North 3.5 mph - N/A   Clear
7:35 AM 34.7 °F - 24.6 °F 67% 30.40 in 10.0 mi Calm Calm - N/A   Clear
9:15 AM - - - N/A% 30.42 in 10.0 mi East 5.8 mph - N/A   Clear
9:35 AM 44.8 °F 41.0 °F 24.1 °F 44% 30.41 in 10.0 mi ESE 6.9 mph - N/A   Clear
9:55 AM 45.9 °F 42.9 °F 23.0 °F 41% 30.41 in 10.0 mi ENE 5.8 mph - N/A   Clear
10:15 AM 46.0 °F 43.9 °F 22.8 °F 40% 30.39 in 10.0 mi East 4.6 mph - N/A   Clear
10:35 AM 47.3 °F - 22.6 °F 38% 30.39 in 10.0 mi Calm Calm - N/A   Clear
10:55 AM 48.2 °F - 23.0 °F 37% 30.39 in 10.0 mi Calm Calm - N/A   Clear
11:15 AM 49.5 °F - 22.1 °F 34% 30.37 in 10.0 mi Calm Calm - N/A   Clear
11:35 AM 50.0 °F - 22.1 °F 33% 30.36 in 10.0 mi SE 3.5 mph - N/A   Clear
11:55 AM 51.4 °F - 21.9 °F 32% 30.34 in 10.0 mi South 4.6 mph - N/A   Clear
12:15 PM 52.3 °F - 21.7 °F 30% 30.32 in 10.0 mi Calm Calm - N/A   Clear
12:35 PM 52.9 °F - 19.9 °F 28% 30.31 in 10.0 mi Calm Calm - N/A   Clear
12:55 PM 53.8 °F - 20.3 °F 27% 30.30 in 10.0 mi Calm Calm - N/A   Clear
1:15 PM 54.9 °F - 20.3 °F 26% 30.29 in 10.0 mi Calm Calm - N/A   Clear
1:35 PM 55.6 °F - 19.6 °F 25% 30.28 in 10.0 mi Calm Calm - N/A   Clear
1:55 PM 56.3 °F - 18.9 °F 23% 30.27 in 10.0 mi NW 3.5 mph - N/A   Clear
2:15 PM 56.7 °F - 18.1 °F 22% 30.25 in 10.0 mi Calm Calm - N/A   Clear
2:35 PM 57.2 °F - 18.1 °F 22% 30.24 in 10.0 mi Calm Calm - N/A   Clear
2:55 PM 57.6 °F - 18.5 °F 22% 30.24 in 10.0 mi Calm Calm - N/A   Clear
3:15 PM 57.9 °F - 18.7 °F 22% 30.22 in 10.0 mi Calm Calm - N/A   Clear
3:35 PM 57.7 °F - 18.3 °F 22% 30.22 in 10.0 mi Calm Calm - N/A   Clear
3:55 PM 58.3 °F - 19.2 °F 22% 30.21 in 10.0 mi SE 3.5 mph - N/A   Clear
4:15 PM 58.3 °F - 19.8 °F 22% 30.21 in 10.0 mi Calm Calm - N/A   Clear
4:35 PM 57.6 °F - 20.3 °F 24% 30.20 in 10.0 mi SSE 3.5 mph - N/A   Clear
4:55 PM 57.0 °F - 21.6 °F 25% 30.20 in 10.0 mi Calm Calm - N/A   Clear
5:15 PM 55.2 °F - 22.8 °F 28% 30.19 in 10.0 mi Calm Calm - N/A   Clear
5:35 PM 52.3 °F - 23.4 °F 32% 30.19 in 10.0 mi Calm Calm - N/A   Clear
5:55 PM 49.3 °F - 25.3 °F 39% 30.19 in 10.0 mi Calm Calm - N/A   Clear
6:15 PM 46.8 °F - 27.9 °F 48% 30.19 in 10.0 mi Calm Calm - N/A   Clear
6:35 PM 44.8 °F - 27.1 °F 50% 30.19 in 10.0 mi Calm Calm - N/A   Clear
6:55 PM 42.4 °F - 28.0 °F 57% 30.19 in 10.0 mi Calm Calm - N/A   Clear
7:15 PM 42.1 °F - 28.0 °F 58% 30.19 in 10.0 mi Calm Calm - N/A   Clear
7:35 PM 41.2 °F - 27.7 °F 59% 30.18 in 10.0 mi Calm Calm - N/A   Clear
7:55 PM 40.5 °F - 28.2 °F 62% 30.18 in 10.0 mi Calm Calm - N/A   Clear
8:15 PM 39.7 °F - 27.0 °F 60% 30.18 in 10.0 mi Calm Calm - N/A   Clear
8:35 PM 38.8 °F - 27.5 °F 64% 30.18 in 10.0 mi Calm Calm - N/A   Clear
8:55 PM 37.8 °F - 28.9 °F 71% 30.17 in 10.0 mi Calm Calm - N/A   Clear
9:15 PM 37.2 °F - 29.8 °F 75% 30.17 in 10.0 mi Calm Calm - N/A   Clear
9:35 PM 37.0 °F - 28.8 °F 72% 30.17 in 10.0 mi Calm Calm - N/A   Clear
9:55 PM 36.1 °F - 29.3 °F 76% 30.17 in 10.0 mi Calm Calm - N/A   Clear
10:15 PM 36.0 °F - 28.2 °F 73% 30.16 in 10.0 mi Calm Calm - N/A   Clear
10:35 PM 34.7 °F - 28.8 °F 79% 30.15 in 10.0 mi Calm Calm - N/A   Clear
10:55 PM 35.6 °F - 28.9 °F 77% 30.14 in 10.0 mi Calm Calm - N/A   Clear
11:15 PM 36.9 °F - 29.1 °F 74% 30.15 in 10.0 mi Calm Calm - N/A   Clear
11:35 PM 36.7 °F - 29.1 °F 74% 30.14 in 10.0 mi Calm Calm - N/A   Clear
11:55 PM 36.7 °F - 29.7 °F 76% 30.14 in 10.0 mi Calm Calm - N/A   Clear